STARLINK-36108

Last updated on Mon Dec 15 2025 00:02:12 GMT+0000 (Coordinated Universal Time)

1 66868U 25281W 25348.25003472 -.01321045 00000+0 -55109-2 0 9996 2 66868 43.0006 112.8990 0001428 261.0864 315.4336 15.87346912 1485
UTC large
Height (km)
Speed (km/s)
/
Latitude / Longitude
Inclination (degrees)
Orbital Period (minutes)
Azimuth
Elevation
Range (km)
Doppler Factor

Next 0 passes for location: London (51.5072 / 0.1276)

Sorry there are no passes over London.